Weather History for PHSF - March, 2014

Change the Weather History Date:

Friday, March 28, 2014

  Actual Average Record
Temperature  
Mean Temperature 52 °F -  
Max Temperature 61 °F 65 °F 75 °F (2008)
Min Temperature 43 °F 46 °F 37 °F (2015)
Degree Days  
Heating Degree Days 13    
Growing Degree Days 2 (Base 50)    
Moisture  
Dew Point 48 °F    
Average Humidity 90    
Maximum Humidity 100    
Minimum Humidity 59    
Precipitation  
Precipitation 0.18 in - - ()
Sea Level Pressure  
Sea Level Pressure 30.22 in    
Wind  
Wind Speed 5 mph (SW)    
Max Wind Speed 13 mph    
Max Gust Speed 21 mph    
Visibility 4 miles    
Events Fog , Rain    
Averages and records for this station are not official NWS values.
T = Trace of Precipitation, MM = Missing Value Source: NWS Daily Summary

Daily Weather History Graph

Daily Weather History Graph

Search for Another Location

Airport or City:

Trip Planner

Search our weather history database for the weather conditions in past years. The results will help you decide how hot, cold, wet, or windy it might be!

Date:

Astronomy

Mar. 28, 2014 Rise Set
Actual Time 6:19 AM HST 6:35 PM HST
Civil Twilight 5:57 AM HST 6:57 PM HST
Nautical Twilight 5:31 AM HST 7:23 PM HST
Astronomical Twilight 5:05 AM HST 7:49 PM HST
Moon 4:41 AM HST (3/28) 4:56 PM HST (3/28)
Length of Visible Light 13h 00m
Length of Day
12h 16m
Waning Crescent, 5% of the Moon is Illuminated
Mar 28
Waning Crescent
Mar 30
New
Apr 6
First Quarter
Apr 14
Full
Apr 21
Last Quarter

Hourly Weather History & Observations

Time (HST) Temp. Windchill Dew Point Humidity Pressure Visibility Wind Dir Wind Speed Gust Speed Precip Events Conditions
12:56 AM 52.2 °F - 41.0 °F 66% 30.05 in 12.0 mi ESE 5.8 mph - N/A   Overcast
1:56 AM 50.9 °F - 45.0 °F 80% 30.03 in 12.0 mi SSW 2.3 mph - N/A   Scattered Clouds
2:41 AM 48.2 °F - 48.2 °F 100% 30.34 in 2.2 mi West 3.5 mph - N/A   Scattered Clouds
2:46 AM 48.2 °F - 48.2 °F 100% 30.34 in 1.4 mi WNW 2.3 mph - N/A   Mostly Cloudy
2:56 AM 48.0 °F - 47.3 °F 97% 30.33 in 0.3 mi West 4.6 mph - N/A Fog Fog
2:57 AM 48.2 °F - 48.2 °F 100% 30.33 in 0.2 mi West 4.6 mph - N/A Fog Light Drizzle
3:12 AM 48.2 °F - 48.2 °F 100% 30.34 in 0.1 mi West 2.3 mph - N/A Fog , Rain Light Rain Showers
3:22 AM 48.2 °F - 48.2 °F 100% 30.34 in 1.2 mi West 3.5 mph - N/A Fog , Rain Light Rain Showers
3:23 AM 48.2 °F - 48.2 °F 100% 30.34 in 1.0 mi West 4.6 mph - N/A Fog Patches of Fog
3:28 AM 48.2 °F - 46.4 °F 93% 30.34 in 0.2 mi West 2.3 mph - N/A Fog Fog
3:43 AM 48.2 °F - 46.4 °F 93% 30.33 in 2.8 mi WNW 2.3 mph - N/A Fog Patches of Fog
3:48 AM 46.4 °F - 44.6 °F 93% 30.33 in 4.0 mi North 2.3 mph - N/A Fog Patches of Fog
3:53 AM 46.4 °F - 46.4 °F 100% 30.33 in 5.0 mi North 1.2 mph - N/A Fog Patches of Fog
3:56 AM 46.2 °F - 45.3 °F 97% 30.05 in 5.0 mi NE 2.3 mph - N/A Fog Patches of Fog
4:01 AM 44.6 °F - 44.6 °F 100% 30.33 in 2.2 mi ESE 1.2 mph - N/A Fog Patches of Fog
4:06 AM 44.6 °F 42.2 °F 44.6 °F 100% 30.33 in 0.5 mi ESE 4.6 mph - N/A Fog Fog
4:16 AM 44.6 °F 42.2 °F 42.8 °F 93% 30.33 in 1.8 mi ESE 4.6 mph - N/A   Partly Cloudy
4:21 AM 44.6 °F 41.4 °F 42.8 °F 93% 30.32 in 5.0 mi ESE 5.8 mph - N/A   Clear
4:56 AM 46.4 °F 44.3 °F 39.9 °F 78% 30.04 in 8.0 mi SE 4.6 mph - N/A   Clear
5:56 AM 45.5 °F 43.2 °F 38.7 °F 77% 30.07 in 10.0 mi ESE 4.6 mph - N/A   Clear
6:56 AM 43.5 °F 41.9 °F 38.8 °F 84% 30.11 in 9.0 mi ESE 3.5 mph - N/A   Clear
7:56 AM 54.0 °F - 41.5 °F 63% 30.09 in 11.0 mi ESE 2.3 mph - N/A   Clear
8:56 AM 56.7 °F - 42.3 °F 59% 30.09 in 10.0 mi SSW 1.2 mph - N/A   Scattered Clouds
9:56 AM 60.4 °F - 48.2 °F 64% 30.06 in 11.0 mi WSW 4.6 mph - N/A   Scattered Clouds
10:56 AM 59.4 °F - 50.0 °F 71% 30.06 in 8.0 mi WSW 4.6 mph - N/A   Scattered Clouds
11:56 AM 60.4 °F - 51.4 °F 72% 30.03 in 6.0 mi WSW 8.1 mph 16.1 mph N/A   Scattered Clouds
12:56 PM 61.0 °F - 52.7 °F 74% 30.01 in 5.0 mi West 12.7 mph 20.7 mph N/A   Scattered Clouds
1:56 PM 61.9 °F - 53.1 °F 73% 29.99 in 5.0 mi West 12.7 mph 18.4 mph N/A   Partly Cloudy
2:56 PM 58.8 °F - 52.2 °F 79% 29.99 in 5.0 mi WSW 9.2 mph - N/A   Mostly Cloudy
3:56 PM 57.6 °F - 52.3 °F 83% 30.01 in 5.0 mi West 9.2 mph - N/A   Partly Cloudy
4:21 PM 55.4 °F - 53.6 °F 94% 30.28 in 3.0 mi West 10.4 mph - N/A   Mostly Cloudy
4:31 PM 55.4 °F - 51.8 °F 88% 30.29 in 2.2 mi West 10.4 mph - N/A   Mostly Cloudy
4:41 PM 55.4 °F - 51.8 °F 88% 30.29 in 5.0 mi West 11.5 mph - N/A   Mostly Cloudy
4:56 PM 53.8 °F - 52.0 °F 94% 30.02 in 3.0 mi West 11.5 mph - N/A   Mostly Cloudy
5:06 PM 53.6 °F - 51.8 °F 94% 30.29 in 5.0 mi West 9.2 mph - N/A   Overcast
5:11 PM 55.4 °F - 51.8 °F 88% 30.29 in 6.0 mi West 8.1 mph - N/A   Mostly Cloudy
5:16 PM 55.4 °F - 51.8 °F 88% 30.29 in 6.0 mi West 8.1 mph - N/A   Mostly Cloudy
5:46 PM 53.6 °F - 51.8 °F 94% 30.30 in 4.0 mi WNW 8.1 mph - N/A   Mostly Cloudy
5:51 PM 53.6 °F - 51.8 °F 94% 30.30 in 5.0 mi West 8.1 mph - N/A   Mostly Cloudy
5:56 PM 54.0 °F - 51.3 °F 91% 30.03 in 5.0 mi West 8.1 mph - N/A   Mostly Cloudy
6:06 PM 53.6 °F - 51.8 °F 94% 30.31 in 6.0 mi West 5.8 mph - N/A   Overcast
6:21 PM 51.8 °F - 51.8 °F 100% 30.32 in 5.0 mi WSW 8.1 mph - N/A   Overcast
6:46 PM 51.8 °F - 50.0 °F 94% 30.32 in 3.0 mi West 9.2 mph - N/A   Mostly Cloudy
6:56 PM 51.8 °F - 51.1 °F 97% 30.07 in 3.0 mi WSW 4.6 mph - N/A   Mostly Cloudy
7:05 PM 51.8 °F - 51.8 °F 100% 30.34 in 2.8 mi WSW 4.6 mph - N/A Rain Light Rain
7:15 PM 51.8 °F - 51.8 °F 100% 30.34 in 1.4 mi WSW 4.6 mph - N/A Rain Light Rain
7:50 PM 51.8 °F - 50.0 °F 94% 30.35 in 1.4 mi SW 4.6 mph - N/A Rain Light Rain
7:56 PM 50.7 °F - 49.8 °F 97% 30.07 in 1.4 mi SW 2.3 mph - 0.11 in Rain Light Rain
8:06 PM 50.0 °F - 50.0 °F 100% 30.35 in 1.5 mi SW 3.5 mph - N/A Rain Light Rain
8:11 PM 50.0 °F - 50.0 °F 100% 30.35 in 1.6 mi SW 2.3 mph - N/A Rain Light Rain
8:16 PM 50.0 °F - 50.0 °F 100% 30.35 in 1.6 mi SSW 2.3 mph - N/A Rain Light Rain
8:51 PM 50.0 °F - 50.0 °F 100% 30.36 in 2.0 mi SW 1.2 mph - N/A Rain Light Rain
8:56 PM 50.5 °F - 49.5 °F 96% 30.07 in 2.8 mi SW 1.2 mph - 0.06 in Rain Light Rain
9:01 PM 50.0 °F - 50.0 °F 100% 30.36 in 3.0 mi SSW 2.3 mph - N/A Rain Light Rain
9:13 PM 51.8 °F - 48.2 °F 88% 30.36 in 4.0 mi SE 3.5 mph - N/A   Mostly Cloudy
9:23 PM 51.8 °F - 48.2 °F 88% 30.36 in 2.0 mi SE 4.6 mph - N/A   Mostly Cloudy
9:33 PM 51.8 °F - 48.2 °F 88% 30.36 in 5.0 mi SE 3.5 mph - N/A   Mostly Cloudy
9:56 PM 50.9 °F - 49.1 °F 94% 30.05 in 5.0 mi SE 4.6 mph - N/A   Overcast
10:56 PM 51.3 °F - 48.7 °F 91% 30.06 in 4.0 mi ESE 4.6 mph - N/A   Overcast
11:37 PM 51.8 °F - 48.2 °F 88% 30.35 in 5.0 mi SE 5.8 mph - N/A Rain Light Rain
11:56 PM 51.1 °F - 48.2 °F 90% 30.04 in 5.0 mi ESE 4.6 mph - 0.01 in Rain Light Rain